TimeMDT,TemperatureF,Dew PointF,Humidity,Sea Level PressureIn,VisibilityMPH,Wind Direction,Wind SpeedMPH,Gust SpeedMPH,PrecipitationIn,Events,Conditions,WindDirDegrees,DateUTC
12:53 AM,25.0,21.0,85,30.21,10.0,Calm,Calm,-,N/A,,Clear,0,2012-11-03 06:53:00
1:53 AM,25.0,19.9,81,30.19,10.0,ESE,4.6,-,N/A,,Clear,120,2012-11-03 07:53:00
2:53 AM,25.0,19.9,81,30.20,10.0,Calm,Calm,-,N/A,,Clear,0,2012-11-03 08:53:00
3:53 AM,23.0,19.0,85,30.21,10.0,Calm,Calm,-,N/A,,Clear,0,2012-11-03 09:53:00
4:53 AM,21.9,18.0,85,30.22,10.0,Calm,Calm,-,N/A,,Clear,0,2012-11-03 10:53:00
5:53 AM,19.9,16.0,85,30.27,10.0,Calm,Calm,-,N/A,,Clear,0,2012-11-03 11:53:00
6:53 AM,19.9,16.0,85,30.32,10.0,Calm,Calm,-,N/A,,Clear,0,2012-11-03 12:53:00
7:53 AM,19.9,16.0,85,30.37,10.0,Calm,Calm,-,N/A,,Clear,0,2012-11-03 13:53:00
8:53 AM,25.0,21.9,88,30.38,10.0,Calm,Calm,-,N/A,,Clear,0,2012-11-03 14:53:00
9:53 AM,30.0,24.1,79,30.37,10.0,Calm,Calm,-,N/A,,Clear,0,2012-11-03 15:53:00
10:53 AM,37.9,28.0,68,30.32,10.0,Calm,Calm,-,N/A,,Clear,0,2012-11-03 16:53:00
11:53 AM,46.9,28.0,48,30.29,10.0,Calm,Calm,-,N/A,,Clear,0,2012-11-03 17:53:00
12:53 PM,53.1,21.9,30,30.27,10.0,Calm,Calm,-,N/A,,Clear,0,2012-11-03 18:53:00
1:53 PM,55.9,23.0,28,30.23,10.0,Variable,3.5,-,N/A,,Clear,0,2012-11-03 19:53:00
2:53 PM,57.0,21.9,26,30.20,10.0,NW,5.8,-,N/A,,Clear,310,2012-11-03 20:53:00
3:53 PM,57.9,19.9,23,30.20,10.0,West,9.2,-,N/A,,Clear,280,2012-11-03 21:53:00
4:53 PM,57.0,17.1,21,30.22,10.0,WNW,10.4,-,N/A,,Clear,290,2012-11-03 22:53:00
5:53 PM,48.0,19.0,32,30.27,10.0,Calm,Calm,-,N/A,,Clear,0,2012-11-03 23:53:00
6:53 PM,37.9,21.0,51,30.34,10.0,Calm,Calm,-,N/A,,Clear,0,2012-11-04 00:53:00
7:53 PM,34.0,19.9,56,30.37,10.0,Calm,Calm,-,N/A,,Clear,0,2012-11-04 01:53:00
8:53 PM,30.0,19.9,66,30.38,10.0,NNE,3.5,-,N/A,,Clear,20,2012-11-04 02:53:00
9:53 PM,32.0,21.0,64,30.37,10.0,Calm,Calm,-,N/A,,Clear,0,2012-11-04 03:53:00
10:53 PM,27.0,19.9,75,30.36,10.0,Calm,Calm,-,N/A,,Clear,0,2012-11-04 04:53:00
11:53 PM,27.0,19.0,72,30.33,10.0,Calm,Calm,-,N/A,,Clear,0,2012-11-04 05:53:00